"Pseudo-MPEC" for P10OD6u

Created 2019 Jun 15 19:08:05 UT using Find_Orb

Click here for an explanation of pseudo-MPECs

 
 Astrometry: 
     P10OD6u  C2019 06 02ytFMWTjhJ42U1EeuG%9quU?okif]aF]5FdmAstrometry!.5KBGZF51
     P10OD6u  C2019 06 02-FydBGi[ej746ZTsu!01GNX]mMYnag;aQ]b@rZ_bKtx,NL[)\F+1F51
     P10OD6u  C2019 06 02X-HK5'tPni7yLStx3Y`_-9E6e?!'$2_2Ze!_redacted;QdNCdTvF51
     P10OD6u KC2019 06 04^Rdql#%_H;$(4/9lo%MZZCs1-G.qU+/-I'SL,9t!=V5CfN65-=Ig291
     P10OD6u KC2019 06 04`BSGCa?xF(_o/8Ao+op#L`F8h6'v-PcGLpoIXh!$p`tZRoO8e;7`291
     P10OD6u KC2019 06 05;)N,dJ9nh;@^dCRDu^I6jf(]fCN9WTEuY8iGSc_=,VI*QLhTbYr(291
     P10OD6u KC2019 06 05;0H9^NRp]wk5[=ixV`_20i=62qRkD5`T]y8fQ.I(T?ri6;gl!L%e291
     P10OD6u KC2019 06 05v!Nn.clickslC3F38F!IGUh?x$ZeK5lP!.V6Ndc@-v@hc34(4^)C291
     P10OD6u  C2019 06 10A_6`0KR::@]PoGmihere/j0wSCe51#.*@OCViS(Bformb\gEg6GZF51
     P10OD6u  C2019 06 10V$6-23rGDvf,Z`[#=$0yF#a]DaJ[.^adcQqOdivb?explanationF51
     P10OD6u  C2019 06 10nS#)Vt-fM.ChkBOo#]SGpory3vO5lwiIyCg@JO=9@_h5LCZMm)mCF51

Station data:
(291) LPL/Spacewatch II  (N31.961669 W111.599905)  US/Arizona.  Observers J.
   V. Scotti, R. S. McMillan. 1.8-m f/2.7 reflector + CCD.
(F51) Pan-STARRS 1, Haleakala  (N20.707235 W156.255910)  US/Hawaii.
   Observers N. Primak, A. Schultz, S. Watters, J. Thiel, T. Goggia. Measurer
   PS1 Science Consortium. 1.8-m Ritchey-Chrétien + CCD.

Orbital elements:  P10OD6u
   Perihelion 2018 Jun 28.218927 +/- 2.57 TT =  5:15:15 (JD 2458297.718927)
Epoch 2019 Jun 10.0 TT = JDT 2458644.5   Earth MOID: 0.7942   AutoNEOCP
M 132.17771584 +/- 1.0              (J2000 ecliptic)
n   0.38115608 +/- 0.000412         Peri.  287.44653 +/- 0.8
a   1.88394178 +/- 0.00136          Node   193.82913 +/- 0.09
e   0.0883233 +/- 0.00109           Incl.   19.99639 +/- 0.031
P   2.59/944.48d           H 20.2   G  0.15   U  7.5  
q 1.71754578 +/- 0.000898    Q 2.05033778 +/- 0.0035
From 11 observations 2019 June 2-10; mean residual 0".14
Residuals in arcseconds: 
190602 F51  .23+  .12-    190604 291  .07-  .07+    190610 F51  .01-  .01+    
190602 F51  .08-  .08-    190605 291  .09-  .04+    190610 F51  .06+  .11-    
190602 F51  .24-  .18+    190605 291  .13-  .05-    190610 F51  .03-  .11+    
190604 291  .45+  .05+    190605 291  .08-  .10-    

Ephemerides (geocentric):
Date (UTC) HH   RA              Dec         delta   r     elong  mag " sig PA
---- -- -- --  -------------   -----------  ------ ------ -----  --- ---- ---
2019 06 15 19  17 19 01.604   +12 39 36.14  1.0955 2.0072 143.8 22.8 1.42  18
2019 06 15 20  17 18 58.844   +12 39 44.54  1.0956 2.0072 143.8 22.8 1.43  18
2019 06 15 21  17 18 56.084   +12 39 52.89  1.0957 2.0072 143.8 22.8 1.45  18
2019 06 15 22  17 18 53.325   +12 40 01.19  1.0958 2.0073 143.8 22.8 1.46  18
2019 06 15 23  17 18 50.567   +12 40 09.43  1.0959 2.0073 143.8 22.8 1.48  18
2019 06 16 00  17 18 47.810   +12 40 17.63  1.0960 2.0073 143.8 22.8 1.49  18
2019 06 16 01  17 18 45.053   +12 40 25.78  1.0960 2.0074 143.8 22.8 1.51  18
2019 06 16 02  17 18 42.297   +12 40 33.87  1.0961 2.0074 143.8 22.8 1.53  18
2019 06 16 03  17 18 39.542   +12 40 41.92  1.0962 2.0074 143.8 22.8 1.54  18
2019 06 16 04  17 18 36.788   +12 40 49.91  1.0963 2.0074 143.7 22.8 1.56  18
2019 06 16 05  17 18 34.034   +12 40 57.86  1.0964 2.0075 143.7 22.8 1.57  18
2019 06 16 06  17 18 31.281   +12 41 05.75  1.0965 2.0075 143.7 22.8 1.59  18
2019 06 16 07  17 18 28.529   +12 41 13.60  1.0966 2.0075 143.7 22.8 1.60  17
2019 06 16 08  17 18 25.778   +12 41 21.39  1.0967 2.0076 143.7 22.8 1.62  17
2019 06 16 09  17 18 23.028   +12 41 29.13  1.0967 2.0076 143.7 22.8 1.64  17
2019 06 16 10  17 18 20.278   +12 41 36.82  1.0968 2.0076 143.7 22.8 1.65  17
2019 06 16 11  17 18 17.529   +12 41 44.46  1.0969 2.0076 143.7 22.8 1.67  17
2019 06 16 12  17 18 14.781   +12 41 52.05  1.0970 2.0077 143.7 22.8 1.68  17
2019 06 16 13  17 18 12.034   +12 41 59.59  1.0971 2.0077 143.7 22.8 1.70  17
2019 06 16 14  17 18 09.288   +12 42 07.08  1.0972 2.0077 143.6 22.8 1.72  17
2019 06 16 15  17 18 06.543   +12 42 14.52  1.0973 2.0078 143.6 22.8 1.73  17
2019 06 16 16  17 18 03.798   +12 42 21.90  1.0974 2.0078 143.6 22.8 1.75  17
2019 06 16 17  17 18 01.055   +12 42 29.24  1.0975 2.0078 143.6 22.8 1.76  17
2019 06 16 18  17 17 58.312   +12 42 36.53  1.0976 2.0078 143.6 22.8 1.78  17
2019 06 16 19  17 17 55.570   +12 42 43.76  1.0977 2.0079 143.6 22.8 1.80  17
2019 06 16 20  17 17 52.829   +12 42 50.95  1.0977 2.0079 143.6 22.8 1.81  17
2019 06 16 21  17 17 50.089   +12 42 58.08  1.0978 2.0079 143.6 22.8 1.83  17
2019 06 16 22  17 17 47.349   +12 43 05.17  1.0979 2.0080 143.6 22.8 1.85  17
2019 06 16 23  17 17 44.611   +12 43 12.20  1.0980 2.0080 143.5 22.8 1.86  17
2019 06 17 00  17 17 41.874   +12 43 19.18  1.0981 2.0080 143.5 22.8 1.88  17
2019 06 17 01  17 17 39.137   +12 43 26.12  1.0982 2.0080 143.5 22.8 1.90  17
2019 06 17 02  17 17 36.401   +12 43 33.00  1.0983 2.0081 143.5 22.8 1.92  17
2019 06 17 03  17 17 33.667   +12 43 39.83  1.0984 2.0081 143.5 22.8 1.93  17
2019 06 17 04  17 17 30.933   +12 43 46.61  1.0985 2.0081 143.5 22.8 1.95  17
2019 06 17 05  17 17 28.200   +12 43 53.34  1.0986 2.0082 143.5 22.8 1.97  17
2019 06 17 06  17 17 25.468   +12 44 00.02  1.0987 2.0082 143.5 22.8 1.98  17
2019 06 17 07  17 17 22.737   +12 44 06.65  1.0988 2.0082 143.5 22.8 2.00  17
2019 06 17 08  17 17 20.007   +12 44 13.23  1.0989 2.0082 143.4 22.8 2.02  17
2019 06 17 09  17 17 17.278   +12 44 19.76  1.0990 2.0083 143.4 22.8 2.04  16
2019 06 17 10  17 17 14.550   +12 44 26.24  1.0991 2.0083 143.4 22.9 2.05  16
2019 06 17 11  17 17 11.823   +12 44 32.66  1.0992 2.0083 143.4 22.9 2.07  16
2019 06 17 12  17 17 09.097   +12 44 39.04  1.0993 2.0084 143.4 22.9 2.09  16
2019 06 17 13  17 17 06.372   +12 44 45.37  1.0994 2.0084 143.4 22.9 2.11  16
2019 06 17 14  17 17 03.647   +12 44 51.65  1.0995 2.0084 143.4 22.9 2.12  16
2019 06 17 15  17 17 00.924   +12 44 57.87  1.0996 2.0084 143.4 22.9 2.14  16
2019 06 17 16  17 16 58.202   +12 45 04.05  1.0997 2.0085 143.3 22.9 2.16  16
2019 06 17 17  17 16 55.481   +12 45 10.17  1.0998 2.0085 143.3 22.9 2.18  16
2019 06 17 18  17 16 52.761   +12 45 16.25  1.0999 2.0085 143.3 22.9 2.20  16